Wind From: 13-12-2017 10:08 Until: 14-12-2017 06:00 warning for: Wind Level: Yellow info button

Although rather usual in this region, locally or potentially dangerous phenomena are expected. (such as local winds, summer thunderstorms, rising streams or high waves) Be aware and pay attention to the latest weather updates, especially if you carry out activities exposed to weather or close to a stream or shoreline. 


Meteo18 Weather Cam more information Meteo18 Weather Cam


Thunder radar more information blitzortung!


Rain radar more information rain snow radar


Visit our other weather sites:

Template documentation
and downloads

And another site



Weather Underground History page Text

Daily Summary for January 14, 2017 Units:  English    Metric   Both
« Previous Day
Next Day »
Daily Weekly Monthly Yearly Custom
  High: Low: Average:
Temperature: 38.8 °F 33.1 °F 35.8 °F
Dew Point: 34.7 °F 29.8 °F 32.4 °F
Humidity: 96 % 75 % 87 %
Wind Speed: 13 mph 0 mph 5 mph
Wind Gust: 19 mph - -
Wind:- - West
Pressure: 30.2 in 30.1 in -
Precipitation: 0.09 in    
Historical Graphs
 
 
Tabular Data for January 14, 2017
Time Temperature Dew Point Pressure Wind Wind Speed Wind Gust Humidity Rainfall Rate (Hourly)
00:02 37.8 °F 32.2 °F 30.1 in WNW 3 mph 11 mph 80 % 0 in
00:07 37.8 °F 32.2 °F 30.1 in NW 2 mph 11 mph 80 % 0 in
00:12 37.8 °F 32.2 °F 30.1 in WSW 3 mph 11 mph 80 % 0 in
00:17 37.8 °F 32.2 °F 30.1 in West 5 mph 11 mph 80 % 0 in
00:22 37.8 °F 32.2 °F 30.1 in West 6 mph 10 mph 80 % 0 in
00:27 37.6 °F 32.4 °F 30.1 in SW 3 mph 11 mph 81 % 0 in
00:32 37.6 °F 32.4 °F 30.1 in WNW 3 mph 11 mph 81 % 0 in
00:37 37.6 °F 32.4 °F 30.1 in WSW 3 mph 10 mph 81 % 0 in
00:42 37.6 °F 32.4 °F 30.1 in NW 3 mph 12 mph 81 % 0 in
00:52 37.4 °F 32.4 °F 30.1 in West 4 mph 9 mph 82 % 0 in
00:57 37.2 °F 32.2 °F 30.1 in West 5 mph 11 mph 82 % 0 in
01:02 37.4 °F 32.2 °F 30.1 in NW 8 mph 14 mph 81 % 0 in
01:07 37.6 °F 32.4 °F 30.1 in WSW 12 mph 17 mph 81 % 0 in
01:12 37.6 °F 32.4 °F 30.1 in WNW 11 mph 17 mph 81 % 0 in
01:17 37.2 °F 32 °F 30.1 in West 3 mph 17 mph 81 % 0 in
01:22 37.2 °F 32 °F 30.1 in WNW 7 mph 16 mph 81 % 0 in
01:32 37.2 °F 32.2 °F 30.1 in WNW 7 mph 14 mph 82 % 0 in
01:37 37 °F 32 °F 30.1 in NW 13 mph 15 mph 82 % 0 in
01:42 37 °F 32 °F 30.1 in West 9 mph 15 mph 82 % 0 in
01:47 37 °F 32 °F 30.1 in WNW 7 mph 15 mph 82 % 0 in
01:52 37 °F 32 °F 30.1 in NW 6 mph 13 mph 82 % 0 in
01:57 37 °F 32 °F 30.1 in WSW 7 mph 15 mph 82 % 0 in
02:02 36.9 °F 31.8 °F 30.1 in WNW 8 mph 15 mph 82 % 0 in
02:07 36.9 °F 31.8 °F 30.1 in WNW 8 mph 15 mph 82 % 0 in
02:12 36.9 °F 31.8 °F 30.1 in West 4 mph 15 mph 82 % 0 in
02:17 36.7 °F 31.6 °F 30.1 in WSW 6 mph 15 mph 82 % 0 in
02:22 36.7 °F 31.6 °F 30.1 in WNW 6 mph 13 mph 82 % 0 in
02:27 36.7 °F 31.6 °F 30.1 in West 11 mph 13 mph 82 % 0 in
02:32 36.7 °F 31.6 °F 30.1 in WNW 10 mph 13 mph 82 % 0 in
02:37 36.7 °F 31.6 °F 30.1 in West 7 mph 13 mph 82 % 0 in
02:42 36.7 °F 32 °F 30.1 in NW 8 mph 13 mph 83 % 0 in
02:47 36.7 °F 32 °F 30.1 in WNW 6 mph 14 mph 83 % 0 in
02:52 36.5 °F 31.8 °F 30.1 in WNW 6 mph 14 mph 83 % 0 in
03:02 36.3 °F 31.6 °F 30.1 in SW 7 mph 18 mph 83 % 0 in
03:07 36.3 °F 31.6 °F 30.1 in WNW 4 mph 18 mph 83 % 0 in
03:12 36.3 °F 31.6 °F 30.1 in WNW 6 mph 19 mph 83 % 0 in
03:17 36.3 °F 32 °F 30.1 in West 7 mph 19 mph 84 % 0 in
03:22 36.1 °F 31.8 °F 30.1 in WNW 12 mph 19 mph 84 % 0 in
03:27 35.8 °F 32.4 °F 30.1 in West 5 mph 18 mph 87 % 0 in
03:32 35.1 °F 32.2 °F 30.1 in North 6 mph 18 mph 89 % 0 in
03:37 34.3 °F 32 °F 30.1 in NW 5 mph 16 mph 91 % 0 in
03:42 34 °F 32.2 °F 30.1 in WNW 6 mph 16 mph 93 % 0 in
03:47 34 °F 32.2 °F 30.1 in West 3 mph 12 mph 93 % 0.01 in
03:52 34 °F 32.2 °F 30.1 in West 2 mph 12 mph 93 % 0.01 in
03:57 33.8 °F 32.2 °F 30.1 in WNW 4 mph 12 mph 94 % 0.01 in
04:02 34 °F 32.4 °F 30.1 in WNW 7 mph 12 mph 94 % 0.01 in
04:07 34.2 °F 32.4 °F 30.1 in West 3 mph 11 mph 93 % 0.02 in
04:12 34.2 °F 32.4 °F 30.1 in West 5 mph 11 mph 93 % 0.02 in
04:17 34.3 °F 32.5 °F 30.1 in NW 2 mph 16 mph 93 % 0.02 in
04:22 34.3 °F 32.2 °F 30.1 in WNW 4 mph 16 mph 92 % 0.02 in
04:27 34.7 °F 32.4 °F 30.1 in West 10 mph 17 mph 91 % 0.02 in
04:32 34.7 °F 32.4 °F 30.1 in WNW 6 mph 17 mph 91 % 0.02 in
04:37 34.5 °F 32.2 °F 30.1 in NW 6 mph 17 mph 91 % 0.02 in
04:42 34.5 °F 32.2 °F 30.1 in WNW 6 mph 14 mph 91 % 0.02 in
04:47 34.3 °F 32 °F 30.1 in WNW 7 mph 12 mph 91 % 0.01 in
04:52 34.3 °F 32 °F 30.1 in North 9 mph 12 mph 91 % 0.01 in
04:57 34.3 °F 32 °F 30.1 in WNW 1 mph 11 mph 91 % 0.01 in
05:02 34.2 °F 31.8 °F 30.1 in NW 8 mph 10 mph 91 % 0.01 in
05:07 34.2 °F 31.8 °F 30.1 in WNW 5 mph 11 mph 91 % 0 in
05:12 34.2 °F 31.8 °F 30.1 in NW 6 mph 12 mph 91 % 0 in
05:17 34.2 °F 31.8 °F 30.1 in WNW 8 mph 12 mph 91 % 0 in
05:22 34.2 °F 31.8 °F 30.1 in NNW 10 mph 13 mph 91 % 0 in
05:27 34.2 °F 31.8 °F 30.1 in WNW 8 mph 13 mph 91 % 0 in
05:32 34.2 °F 31.8 °F 30.1 in NNW 3 mph 14 mph 91 % 0 in
05:37 34.2 °F 31.8 °F 30.1 in WNW 5 mph 17 mph 91 % 0 in
05:42 34.2 °F 31.8 °F 30.1 in WNW 8 mph 17 mph 91 % 0 in
05:52 34.3 °F 32 °F 30.1 in NW 5 mph 17 mph 91 % 0 in
05:57 34.3 °F 31.6 °F 30.1 in NW 11 mph 17 mph 90 % 0 in
06:02 34.3 °F 31.6 °F 30.1 in WNW 6 mph 18 mph 90 % 0 in
06:12 34.3 °F 31.6 °F 30.1 in WNW 8 mph 18 mph 90 % 0 in
06:17 34.3 °F 31.6 °F 30.1 in NW 5 mph 13 mph 90 % 0 in
06:22 34.3 °F 31.6 °F 30.1 in NW 7 mph 13 mph 90 % 0 in
06:27 34.3 °F 31.5 °F 30.1 in West 7 mph 13 mph 89 % 0 in
06:32 34.3 °F 31.6 °F 30.1 in WNW 5 mph 13 mph 90 % 0 in
06:37 34.2 °F 31.5 °F 30.1 in NW 13 mph 13 mph 90 % 0 in
06:42 34.2 °F 31.5 °F 30.1 in WNW 6 mph 13 mph 90 % 0 in
06:52 34.2 °F 31.3 °F 30.1 in West 13 mph 14 mph 89 % 0 in
06:57 34.3 °F 31.5 °F 30.1 in WNW 8 mph 18 mph 89 % 0 in
07:02 34.2 °F 31.3 °F 30.1 in WNW 8 mph 18 mph 89 % 0 in
07:12 34.2 °F 31.3 °F 30.1 in WNW 6 mph 18 mph 89 % 0 in
07:17 34.2 °F 31.3 °F 30.1 in WNW 10 mph 13 mph 89 % 0 in
07:22 34 °F 31.1 °F 30.1 in NW 11 mph 14 mph 89 % 0 in
07:27 34 °F 31.1 °F 30.1 in NW 8 mph 14 mph 89 % 0 in
07:32 34 °F 31.1 °F 30.1 in WNW 7 mph 14 mph 89 % 0 in
07:37 33.8 °F 30.9 °F 30.1 in NW 8 mph 16 mph 89 % 0 in
07:42 33.8 °F 30.9 °F 30.1 in North 5 mph 16 mph 89 % 0 in
07:47 33.8 °F 30.9 °F 30.1 in NNW 8 mph 16 mph 89 % 0 in
07:57 33.6 °F 30.7 °F 30.1 in WNW 10 mph 17 mph 89 % 0 in
08:02 33.6 °F 30.7 °F 30.1 in WNW 5 mph 17 mph 89 % 0 in
08:07 33.4 °F 30.6 °F 30.2 in WNW 4 mph 15 mph 89 % 0 in
08:12 33.4 °F 30.6 °F 30.2 in NW 10 mph 15 mph 89 % 0 in
08:17 33.4 °F 30.6 °F 30.2 in WNW 12 mph 12 mph 89 % 0 in
08:22 33.4 °F 30.6 °F 30.2 in NW 3 mph 12 mph 89 % 0 in
08:27 33.3 °F 30 °F 30.2 in NNW 4 mph 12 mph 88 % 0 in
08:32 33.3 °F 30 °F 30.2 in NW 6 mph 12 mph 88 % 0 in
08:37 33.3 °F 30.4 °F 30.2 in WNW 6 mph 12 mph 89 % 0 in
08:42 33.3 °F 30 °F 30.2 in WNW 4 mph 12 mph 88 % 0 in
08:52 33.1 °F 30.2 °F 30.2 in NW 3 mph 10 mph 89 % 0 in
08:57 33.1 °F 30.2 °F 30.2 in NW 6 mph 10 mph 89 % 0 in
09:02 33.1 °F 29.8 °F 30.2 in WNW 1 mph 10 mph 88 % 0 in
09:12 33.1 °F 30.2 °F 30.2 in West 3 mph 9 mph 89 % 0 in
09:17 33.1 °F 30.2 °F 30.2 in NW 5 mph 9 mph 89 % 0 in
09:22 33.1 °F 30.2 °F 30.2 in NW 3 mph 7 mph 89 % 0 in
09:27 33.3 °F 30.4 °F 30.2 in West 1 mph 6 mph 89 % 0 in
09:32 33.3 °F 30.4 °F 30.2 in WNW 1 mph 6 mph 89 % 0 in
09:37 33.3 °F 30.4 °F 30.2 in SW 1 mph 7 mph 89 % 0 in
09:42 33.4 °F 30.2 °F 30.2 in SW 4 mph 7 mph 88 % 0 in
09:47 33.4 °F 30.2 °F 30.2 in WSW 1 mph 9 mph 88 % 0 in
09:52 33.6 °F 30.4 °F 30.2 in NW 6 mph 9 mph 88 % 0 in
09:57 33.6 °F 30.4 °F 30.2 in WNW 8 mph 9 mph 88 % 0 in
10:02 33.6 °F 30.2 °F 30.2 in WNW 3 mph 10 mph 87 % 0 in
10:12 34 °F 30.6 °F 30.2 in WNW 2 mph 10 mph 87 % 0 in
10:17 34.2 °F 30.4 °F 30.2 in WNW 9 mph 10 mph 86 % 0 in
10:22 34.3 °F 30.6 °F 30.2 in WNW 7 mph 11 mph 86 % 0 in
10:32 34.7 °F 30.7 °F 30.2 in NW 3 mph 11 mph 85 % 0 in
10:37 34.9 °F 30.6 °F 30.2 in WNW 6 mph 9 mph 84 % 0 in
10:42 35.1 °F 30.7 °F 30.2 in WNW 8 mph 9 mph 84 % 0 in
10:47 35.2 °F 30.6 °F 30.2 in WSW 3 mph 11 mph 83 % 0 in
10:52 35.4 °F 30.6 °F 30.2 in Calm   12 mph 82 % 0 in
10:57 35.6 °F 30.7 °F 30.2 in WNW 2 mph 12 mph 82 % 0 in
11:02 35.8 °F 30.7 °F 30.2 in West 6 mph 10 mph 82 % 0 in
11:07 35.8 °F 30.7 °F 30.2 in WNW 7 mph 11 mph 82 % 0 in
11:12 36 °F 30.9 °F 30.2 in WNW 3 mph 11 mph 82 % 0 in
11:17 36 °F 30.7 °F 30.2 in NW 6 mph 11 mph 81 % 0 in
11:22 36.1 °F 30.9 °F 30.2 in NW 2 mph 11 mph 81 % 0 in
11:27 36.3 °F 31.1 °F 30.2 in WNW 7 mph 11 mph 81 % 0 in
11:32 36.5 °F 30.9 °F 30.2 in NW 4 mph 11 mph 80 % 0 in
11:37 36.7 °F 31.1 °F 30.2 in WNW 2 mph 11 mph 80 % 0 in
11:42 37 °F 31.1 °F 30.2 in WNW 6 mph 11 mph 79 % 0 in
11:47 37 °F 30.7 °F 30.2 in West 7 mph 12 mph 78 % 0 in
11:52 37.2 °F 30.7 °F 30.2 in NNW 6 mph 13 mph 77 % 0 in
11:57 37.2 °F 30.7 °F 30.2 in WNW 5 mph 13 mph 77 % 0 in
12:02 37.2 °F 30.9 °F 30.2 in WNW 10 mph 16 mph 78 % 0 in
12:07 37.2 °F 31.3 °F 30.2 in NNW 5 mph 16 mph 79 % 0 in
12:12 37.2 °F 31.3 °F 30.2 in WNW 7 mph 16 mph 79 % 0 in
12:17 37.4 °F 31.1 °F 30.2 in WNW 10 mph 16 mph 78 % 0 in
12:22 37.2 °F 30.9 °F 30.2 in West 10 mph 13 mph 78 % 0 in
12:27 37.6 °F 31.3 °F 30.2 in NW 6 mph 14 mph 78 % 0 in
12:32 37.8 °F 31.8 °F 30.2 in NW 5 mph 14 mph 79 % 0 in
12:37 37.8 °F 30.9 °F 30.2 in West 4 mph 14 mph 76 % 0 in
12:42 37.9 °F 31.5 °F 30.2 in WNW 8 mph 13 mph 77 % 0 in
12:52 38.3 °F 31.5 °F 30.2 in WNW 13 mph 14 mph 76 % 0 in
12:57 38.1 °F 30.9 °F 30.2 in West 5 mph 15 mph 75 % 0 in
13:02 38.1 °F 30.9 °F 30.2 in Calm   15 mph 75 % 0 in
13:07 38.8 °F 32.2 °F 30.2 in West 1 mph 15 mph 77 % 0 in
13:12 38.7 °F 31.8 °F 30.2 in NW 4 mph 14 mph 76 % 0 in
13:17 38.5 °F 31.8 °F 30.2 in WNW 6 mph 10 mph 77 % 0 in
13:22 38.3 °F 31.6 °F 30.2 in West 6 mph 11 mph 77 % 0 in
13:27 38.1 °F 31.3 °F 30.2 in WNW 5 mph 11 mph 76 % 0 in
13:32 37.9 °F 31.5 °F 30.2 in WNW 10 mph 11 mph 77 % 0 in
13:37 37.9 °F 31.5 °F 30.2 in WSW 5 mph 12 mph 77 % 0 in
13:42 37.9 °F 31.6 °F 30.2 in WNW 8 mph 12 mph 78 % 0 in
13:47 37.8 °F 31.3 °F 30.2 in WNW 11 mph 12 mph 77 % 0 in
13:52 37.6 °F 31.3 °F 30.2 in West 6 mph 13 mph 78 % 0 in
13:57 37.6 °F 31.6 °F 30.2 in West 6 mph 13 mph 79 % 0 in
14:02 37.4 °F 31.8 °F 30.2 in WNW 3 mph 13 mph 80 % 0 in
14:07 37.2 °F 31.6 °F 30.2 in West 8 mph 14 mph 80 % 0 in
14:12 37.2 °F 32 °F 30.2 in WNW 8 mph 14 mph 81 % 0 in
14:17 37 °F 31.8 °F 30.2 in West 6 mph 15 mph 81 % 0 in
14:22 37 °F 31.8 °F 30.2 in West 7 mph 15 mph 81 % 0 in
14:27 37 °F 31.8 °F 30.2 in WSW 7 mph 13 mph 81 % 0 in
14:32 37.2 °F 32.2 °F 30.2 in West 10 mph 13 mph 82 % 0 in
14:37 37.2 °F 32.2 °F 30.2 in WNW 9 mph 12 mph 82 % 0 in
14:42 37.2 °F 32.5 °F 30.2 in WSW 5 mph 11 mph 83 % 0 in
14:47 37 °F 32 °F 30.2 in West 10 mph 11 mph 82 % 0 in
14:52 37 °F 32.4 °F 30.2 in West 6 mph 13 mph 83 % 0 in
14:57 36.9 °F 32.5 °F 30.2 in WNW 5 mph 13 mph 84 % 0 in
15:02 36.9 °F 33.1 °F 30.2 in West 4 mph 11 mph 86 % 0 in
15:07 36.7 °F 32.9 °F 30.2 in West 10 mph 11 mph 86 % 0 in
15:12 36.3 °F 32.5 °F 30.2 in West 7 mph 12 mph 86 % 0 in
15:17 36.3 °F 33.1 °F 30.2 in West 8 mph 14 mph 88 % 0 in
15:22 36.3 °F 33.1 °F 30.2 in West 4 mph 14 mph 88 % 0 in
15:27 36.1 °F 33.3 °F 30.2 in WNW 4 mph 14 mph 89 % 0 in
15:32 36.1 °F 33.3 °F 30.2 in West 8 mph 13 mph 89 % 0 in
15:37 36 °F 33.3 °F 30.2 in WSW 10 mph 15 mph 90 % 0 in
15:42 36 °F 33.3 °F 30.2 in WNW 6 mph 15 mph 90 % 0 in
15:47 35.8 °F 33.1 °F 30.2 in WNW 13 mph 15 mph 90 % 0 in
15:52 35.6 °F 33.3 °F 30.2 in West 6 mph 15 mph 91 % 0 in
15:57 35.8 °F 33.1 °F 30.2 in WNW 5 mph 15 mph 90 % 0 in
16:02 35.6 °F 33.3 °F 30.2 in West 7 mph 15 mph 91 % 0 in
16:07 35.4 °F 32.7 °F 30.2 in WNW 6 mph 15 mph 90 % 0 in
16:12 35.4 °F 32.7 °F 30.2 in West 5 mph 15 mph 90 % 0 in
16:17 35.6 °F 32.7 °F 30.2 in West 6 mph 15 mph 89 % 0 in
16:22 35.4 °F 32.7 °F 30.2 in WSW 7 mph 11 mph 90 % 0 in
16:32 35.8 °F 32.9 °F 30.2 in WNW 5 mph 13 mph 89 % 0 in
16:37 35.8 °F 33.1 °F 30.2 in West 8 mph 13 mph 90 % 0 in
16:42 36 °F 33.1 °F 30.2 in WSW 2 mph 11 mph 89 % 0 in
16:47 36.1 °F 33.3 °F 30.2 in WNW 3 mph 10 mph 89 % 0 in
16:52 36.1 °F 33.3 °F 30.2 in NW 5 mph 10 mph 89 % 0 in
16:57 36.3 °F 33.4 °F 30.2 in WNW 5 mph 8 mph 89 % 0 in
17:02 36.3 °F 33.6 °F 30.2 in NNW 3 mph 9 mph 90 % 0 in
17:07 36.3 °F 33.6 °F 30.2 in West 1 mph 9 mph 90 % 0 in
17:12 36.1 °F 33.4 °F 30.2 in NW 7 mph 9 mph 90 % 0 in
17:17 35.8 °F 33.4 °F 30.2 in WNW 2 mph 11 mph 91 % 0.01 in
17:22 35.8 °F 33.6 °F 30.2 in WNW 3 mph 11 mph 92 % 0.02 in
17:27 35.8 °F 33.6 °F 30.2 in WSW 1 mph 8 mph 92 % 0.02 in
17:32 35.8 °F 33.6 °F 30.2 in Calm   7 mph 92 % 0.02 in
17:37 35.8 °F 33.6 °F 30.2 in Calm   3 mph 92 % 0.02 in
17:42 35.8 °F 33.6 °F 30.2 in WNW 1 mph 2 mph 92 % 0.02 in
17:52 36 °F 33.8 °F 30.2 in WNW 2 mph 6 mph 92 % 0.02 in
17:57 36 °F 33.6 °F 30.2 in West 1 mph 6 mph 91 % 0.02 in
18:02 36.1 °F 33.8 °F 30.2 in West 1 mph 5 mph 91 % 0.02 in
18:07 36.1 °F 33.8 °F 30.2 in West 2 mph 5 mph 91 % 0.02 in
18:12 36.1 °F 33.8 °F 30.2 in West 2 mph 4 mph 91 % 0.01 in
18:17 36 °F 33.6 °F 30.2 in WNW 3 mph 4 mph 91 % 0.01 in
18:22 36.1 °F 33.8 °F 30.2 in WNW 4 mph 4 mph 91 % 0 in
18:27 36.1 °F 33.8 °F 30.2 in WNW 2 mph 5 mph 91 % 0 in
18:32 36.1 °F 33.8 °F 30.2 in West 4 mph 6 mph 91 % 0 in
18:37 36.3 °F 34 °F 30.2 in WNW 3 mph 6 mph 91 % 0 in
18:42 36.3 °F 34 °F 30.2 in WNW 3 mph 10 mph 91 % 0 in
18:52 36.3 °F 34 °F 30.2 in West 2 mph 8 mph 91 % 0 in
18:57 36.5 °F 34.2 °F 30.2 in WNW 1 mph 8 mph 91 % 0 in
19:02 36.5 °F 34.2 °F 30.2 in West 2 mph 8 mph 91 % 0 in
19:07 36.5 °F 34.2 °F 30.2 in WNW 1 mph 7 mph 91 % 0 in
19:12 36.5 °F 34.2 °F 30.2 in WNW 3 mph 6 mph 91 % 0 in
19:17 36.7 °F 34.3 °F 30.2 in WNW 1 mph 6 mph 91 % 0 in
19:22 36.7 °F 34.3 °F 30.2 in WNW 3 mph 5 mph 91 % 0 in
19:27 36.7 °F 34.3 °F 30.2 in WNW 1 mph 6 mph 91 % 0 in
19:32 36.7 °F 34.3 °F 30.2 in West 2 mph 6 mph 91 % 0 in
19:37 36.9 °F 34.2 °F 30.2 in West 2 mph 6 mph 90 % 0 in
19:47 37.2 °F 34.5 °F 30.2 in WNW 4 mph 7 mph 90 % 0 in
19:52 37.2 °F 34.3 °F 30.2 in West 5 mph 9 mph 89 % 0 in
19:57 37.4 °F 34.5 °F 30.2 in West 1 mph 9 mph 89 % 0 in
20:02 37.2 °F 34.3 °F 30.2 in Calm   9 mph 89 % 0 in
20:07 37.2 °F 34.3 °F 30.2 in West 3 mph 9 mph 89 % 0 in
20:12 37 °F 34.3 °F 30.2 in WNW 4 mph 5 mph 90 % 0 in
20:17 37 °F 34.3 °F 30.2 in West 3 mph 7 mph 90 % 0 in
20:22 37 °F 34.3 °F 30.2 in WSW 1 mph 7 mph 90 % 0 in
20:27 37.2 °F 34.5 °F 30.2 in WSW 1 mph 7 mph 90 % 0 in
20:32 37.2 °F 34.3 °F 30.2 in WNW 2 mph 7 mph 89 % 0 in
20:37 37.2 °F 34.3 °F 30.2 in WSW 1 mph 7 mph 89 % 0 in
20:42 37.2 °F 34.5 °F 30.2 in WNW 2 mph 6 mph 90 % 0 in
20:47 37.4 °F 34.5 °F 30.2 in SW 3 mph 6 mph 89 % 0 in
20:52 37.4 °F 34.7 °F 30.2 in West 6 mph 7 mph 90 % 0 in
20:57 37.4 °F 34.7 °F 30.2 in West 6 mph 8 mph 90 % 0 in
21:02 37.4 °F 34.7 °F 30.2 in NW 2 mph 9 mph 90 % 0.01 in
21:07 37.2 °F 34.5 °F 30.2 in WNW 8 mph 9 mph 90 % 0.01 in
21:12 37.2 °F 34.5 °F 30.2 in NW 3 mph 11 mph 90 % 0.01 in
21:17 37 °F 34.3 °F 30.2 in WNW 8 mph 11 mph 90 % 0.01 in
21:22 37 °F 34.3 °F 30.2 in WNW 3 mph 11 mph 90 % 0.01 in
21:27 36.9 °F 34.5 °F 30.2 in West 4 mph 11 mph 91 % 0.01 in
21:32 36.9 °F 34.5 °F 30.2 in NW 3 mph 11 mph 91 % 0.01 in
21:37 36.7 °F 34.3 °F 30.2 in NW 2 mph 10 mph 91 % 0.01 in
21:42 36.5 °F 34.3 °F 30.2 in NW 1 mph 9 mph 92 % 0.01 in
21:52 36.3 °F 34.2 °F 30.2 in WNW 1 mph 6 mph 92 % 0.01 in
21:57 36.1 °F 34 °F 30.2 in WNW 5 mph 8 mph 92 % 0.01 in
22:02 36 °F 34.2 °F 30.2 in WNW 2 mph 8 mph 93 % 0.01 in
22:07 35.8 °F 34 °F 30.2 in WNW 1 mph 9 mph 93 % 0.01 in
22:12 35.4 °F 33.6 °F 30.2 in NW 1 mph 9 mph 93 % 0.02 in
22:17 35.2 °F 33.4 °F 30.2 in NW 3 mph 8 mph 93 % 0.02 in
22:22 35.1 °F 33.4 °F 30.2 in NNE 2 mph 6 mph 94 % 0.02 in
22:27 34.9 °F 33.3 °F 30.2 in NE 1 mph 5 mph 94 % 0.02 in
22:32 34.7 °F 33.1 °F 30.2 in NE 3 mph 6 mph 94 % 0.03 in
22:37 34.5 °F 32.9 °F 30.2 in NNE 4 mph 6 mph 94 % 0.03 in
22:42 34.2 °F 32.5 °F 30.2 in North 4 mph 8 mph 94 % 0.03 in
22:47 33.8 °F 32.2 °F 30.2 in Calm   8 mph 94 % 0.03 in
22:52 33.6 °F 32.4 °F 30.2 in Calm   8 mph 95 % 0.03 in
22:57 33.4 °F 32.2 °F 30.2 in Calm   5 mph 95 % 0.03 in
23:02 33.4 °F 32.2 °F 30.2 in Calm   2 mph 95 % 0.03 in
23:07 33.4 °F 32.2 °F 30.2 in Calm   1 mph 95 % 0.03 in
23:12 33.4 °F 32.4 °F 30.2 in Calm   2 mph 96 % 0.02 in
23:17 33.6 °F 32.5 °F 30.2 in Calm   3 mph 96 % 0.02 in
23:22 33.6 °F 32.5 °F 30.2 in Calm   3 mph 96 % 0.02 in
23:32 33.8 °F 32.7 °F 30.2 in Calm   5 mph 96 % 0.02 in
23:37 34 °F 32.9 °F 30.2 in NNE 2 mph 5 mph 96 % 0.02 in
23:42 34.2 °F 33.1 °F 30.2 in WNW 3 mph 9 mph 96 % 0.02 in
23:47 34.2 °F 32.9 °F 30.2 in NNE 2 mph 9 mph 95 % 0.02 in
23:52 34.2 °F 32.9 °F 30.2 in NNW 4 mph 9 mph 95 % 0.01 in
23:57 34.3 °F 33.1 °F 30.2 in NW 5 mph 6 mph 95 % 0.01 in
Meteo18
Compliments of Weather Underground - 4 mb

Script developed by  Jim McMurry - jmcmurry@mwt.net Adapted for the template by  Wim van der Kuil - Leuven-Template.eu

You find our weather info also at:

European Weather Network

Weather Underground

Equipment we use:

Weather-station
Davis Vue

Weather-program
Meteohub

Weather-server
Raspberry PI 2 B+

Provider
1 and 1

Davis Vue

Meteohub

Raspberry PI 2 B+

1 and 1